Tracking 18984 objects as of 24-Feb-2018
HD Live streaming from Space Station
objects crossing your sky now

AMC-21

Track AMC-21 now!
AMC-21 is classified as:


NORAD ID: 33275
Int'l Code: 2008-038B
Perigee: 35,781.8 km
Apogee: 35,805.4 km
Inclination: 0.1 °
Period: 1,436.1 minutes
Semi major axis: 42164 km
RCS: 19.9526 m2 (large)
Launch date: August 14, 2008
Source: SOCIETE EUROPEENNE DES SATELLITES (SES)
Launch site: FRENCH GUIANA (FRGUI)

AMC 21, also known as Americom 21, carries 24 Ku-band transponders and two reflector antennas to provide television services to the United States, Canada, Mexico and Caribbean countries, after parking over 125° W longitude.
aabbcc
Your satellite tracking list
Your tracking list is empty




NASA's NSSDC Master Catalog

Two Line Element Set (TLE):
1 33275U 08038B   18054.46090977  .00000025  00000-0  00000+0 0  9995
2 33275   0.0612 295.0091 0002791  48.4986 210.7985  1.00272332 35027
Source of the keplerian elements: AFSPC